Time,TemperatureF,DewpointF,PressureIn,WindDirection,WindDirectionDegrees,WindSpeedMPH,WindSpeedGustMPH,Humidity,HourlyPrecipIn,Conditions,Clouds,dailyrainin,SoftwareType,DateUTC
2013-01-13 00:00:00,33.9,28.1,29.93,WSW,249,2.0,3.0,79,0.00,,---,0.00,VWS V14.01,2013-01-13 05:00:00,
2013-01-13 00:02:00,33.7,28.2,29.93,SW,216,4.0,7.0,80,0.00,,---,0.00,VWS V14.01,2013-01-13 05:02:00,
2013-01-13 00:03:00,33.8,28.3,29.93,SW,219,2.0,7.0,80,0.00,,---,0.00,VWS V14.01,2013-01-13 05:03:00,
2013-01-13 00:08:00,33.6,28.4,29.93,WSW,244,1.0,7.0,81,0.00,,---,0.00,VWS V14.01,2013-01-13 05:08:00,
2013-01-13 00:10:00,33.6,28.4,29.93,WSW,242,0.0,7.0,81,0.00,,---,0.00,VWS V14.01,2013-01-13 05:10:00,
2013-01-13 00:13:00,33.5,28.3,29.93,WSW,240,0.0,3.0,81,0.00,,---,0.00,VWS V14.01,2013-01-13 05:13:00,
2013-01-13 00:18:00,33.3,28.7,29.93,WSW,257,0.0,5.0,83,0.00,,---,0.02,VWS V14.01,2013-01-13 05:18:00,
2013-01-13 00:20:00,33.3,28.7,29.93,WSW,257,0.0,5.0,83,0.00,,---,0.00,VWS V14.01,2013-01-13 05:20:00,
2013-01-13 00:23:00,33.2,28.6,29.93,WSW,256,0.0,2.0,83,0.00,,---,0.00,VWS V14.01,2013-01-13 05:23:00,
2013-01-13 00:28:00,33.2,28.6,29.93,WSW,255,0.0,2.0,83,0.00,,---,0.00,VWS V14.01,2013-01-13 05:28:00,
2013-01-13 00:30:00,33.0,28.4,29.93,WSW,254,0.0,2.0,83,0.00,,---,0.00,VWS V14.01,2013-01-13 05:30:00,
2013-01-13 00:33:00,33.0,28.4,29.93,WSW,254,0.0,3.0,83,0.00,,---,0.00,VWS V14.01,2013-01-13 05:33:00,
2013-01-13 00:38:00,32.8,28.5,29.93,WSW,248,0.0,3.0,84,0.00,,---,0.00,VWS V14.01,2013-01-13 05:38:00,
2013-01-13 00:40:00,32.8,28.5,29.93,WSW,248,0.0,3.0,84,0.00,,---,0.00,VWS V14.01,2013-01-13 05:40:00,
2013-01-13 00:43:00,32.9,28.9,29.92,WSW,247,0.0,3.0,85,0.00,,---,0.00,VWS V14.01,2013-01-13 05:43:00,
2013-01-13 00:48:00,32.6,28.6,29.92,WSW,243,1.0,3.0,85,0.00,,---,0.00,VWS V14.01,2013-01-13 05:48:00,
2013-01-13 00:50:00,32.7,28.7,29.92,WSW,239,0.0,3.0,85,0.00,,---,0.00,VWS V14.01,2013-01-13 05:50:00,
2013-01-13 00:53:00,32.5,28.5,29.92,SW,236,0.0,1.0,85,0.00,,---,0.00,VWS V14.01,2013-01-13 05:53:00,
2013-01-13 00:58:00,32.5,28.8,29.92,WSW,238,0.0,3.0,86,0.00,,---,0.00,VWS V14.01,2013-01-13 05:58:00,
2013-01-13 01:00:00,32.5,28.5,29.92,SW,235,0.0,3.0,85,0.00,,---,0.00,VWS V14.01,2013-01-13 06:00:00,
2013-01-13 01:03:00,32.5,28.8,29.92,WSW,239,0.0,2.0,86,0.00,,---,0.00,VWS V14.01,2013-01-13 06:03:00,
2013-01-13 01:08:00,32.5,28.8,29.92,SW,235,0.0,2.0,86,0.00,,---,0.00,VWS V14.01,2013-01-13 06:08:00,
2013-01-13 01:10:00,32.4,28.7,29.92,SW,232,1.0,2.0,86,0.00,,---,0.00,VWS V14.01,2013-01-13 06:10:00,
2013-01-13 01:13:00,32.4,29.0,29.92,SSW,201,0.0,3.0,87,0.00,,---,0.00,VWS V14.01,2013-01-13 06:13:00,
2013-01-13 01:18:00,32.2,28.8,29.92,SSW,199,0.0,4.0,87,0.00,,---,0.00,VWS V14.01,2013-01-13 06:18:00,
2013-01-13 01:20:00,32.2,28.8,29.92,SSW,200,1.0,4.0,87,0.00,,---,0.00,VWS V14.01,2013-01-13 06:20:00,
2013-01-13 01:23:00,32.2,28.8,29.92,SSW,201,1.0,5.0,87,0.00,,---,0.00,VWS V14.01,2013-01-13 06:23:00,
2013-01-13 01:28:00,32.1,28.4,29.92,SW,215,0.0,5.0,86,0.00,,---,0.00,VWS V14.01,2013-01-13 06:28:00,
2013-01-13 01:30:00,32.1,28.4,29.92,WNW,282,4.0,6.0,86,0.00,,---,0.00,VWS V14.01,2013-01-13 06:30:00,
2013-01-13 01:33:00,32.1,28.7,29.91,West,275,3.0,4.0,87,0.00,,---,0.00,VWS V14.01,2013-01-13 06:33:00,
2013-01-13 01:38:00,31.9,28.5,29.91,West,272,0.0,4.0,87,0.00,,---,0.00,VWS V14.01,2013-01-13 06:38:00,
2013-01-13 01:40:00,31.9,28.5,29.91,West,272,0.0,4.0,87,0.00,,---,0.00,VWS V14.01,2013-01-13 06:40:00,
2013-01-13 01:43:00,31.9,28.5,29.90,West,277,0.0,3.0,87,0.00,,---,0.00,VWS V14.01,2013-01-13 06:43:00,
2013-01-13 01:48:00,31.9,28.5,29.91,West,277,1.0,3.0,87,0.00,,---,0.00,VWS V14.01,2013-01-13 06:48:00,
2013-01-13 01:50:00,31.8,28.7,29.91,West,277,1.0,3.0,88,0.00,,---,0.00,VWS V14.01,2013-01-13 06:50:00,
2013-01-13 01:53:00,31.8,28.4,29.91,West,277,1.0,2.0,87,0.00,,---,0.00,VWS V14.01,2013-01-13 06:53:00,
2013-01-13 01:58:00,31.8,28.7,29.91,West,277,0.0,3.0,88,0.00,,---,0.00,VWS V14.01,2013-01-13 06:58:00,
2013-01-13 02:00:00,31.8,28.7,29.91,West,277,1.0,3.0,88,0.00,,---,0.00,VWS V14.01,2013-01-13 07:00:00,
2013-01-13 02:04:00,31.8,28.7,29.91,West,277,0.0,3.0,88,0.00,,---,0.00,VWS V14.01,2013-01-13 07:04:00,
2013-01-13 02:09:00,31.6,28.5,29.91,West,277,0.0,3.0,88,0.00,,---,0.00,VWS V14.01,2013-01-13 07:09:00,
2013-01-13 02:10:00,31.6,28.5,29.91,West,277,0.0,3.0,88,0.00,,---,0.00,VWS V14.01,2013-01-13 07:10:00,
2013-01-13 02:14:00,31.6,28.5,29.91,West,277,0.0,1.0,88,0.00,,---,0.00,VWS V14.01,2013-01-13 07:14:00,
2013-01-13 02:19:00,31.6,28.5,29.91,West,277,0.0,2.0,88,0.00,,---,0.00,VWS V14.01,2013-01-13 07:19:00,
2013-01-13 02:20:00,31.6,28.5,29.91,West,277,0.0,2.0,88,0.00,,---,0.00,VWS V14.01,2013-01-13 07:20:00,
2013-01-13 02:24:00,31.6,28.5,29.91,West,277,0.0,2.0,88,0.00,,---,0.00,VWS V14.01,2013-01-13 07:24:00,
2013-01-13 02:29:00,31.6,28.5,29.91,West,277,0.0,2.0,88,0.00,,---,0.00,VWS V14.01,2013-01-13 07:29:00,
2013-01-13 02:30:00,31.6,28.5,29.90,West,277,0.0,2.0,88,0.00,,---,0.00,VWS V14.01,2013-01-13 07:30:00,
2013-01-13 02:34:00,31.6,28.7,29.90,West,277,0.0,2.0,89,0.00,,---,0.00,VWS V14.01,2013-01-13 07:34:00,
2013-01-13 02:39:00,31.6,28.7,29.91,West,277,0.0,3.0,89,0.00,,---,0.00,VWS V14.01,2013-01-13 07:39:00,
2013-01-13 02:40:00,31.6,28.7,29.90,West,277,0.0,3.0,89,0.00,,---,0.00,VWS V14.01,2013-01-13 07:40:00,
2013-01-13 02:44:00,31.5,28.6,29.90,West,277,0.0,2.0,89,0.00,,---,0.00,VWS V14.01,2013-01-13 07:44:00,
2013-01-13 02:49:00,31.5,28.6,29.90,West,277,0.0,2.0,89,0.00,,---,0.00,VWS V14.01,2013-01-13 07:49:00,
2013-01-13 02:50:00,31.5,28.6,29.90,West,277,0.0,2.0,89,0.00,,---,0.00,VWS V14.01,2013-01-13 07:50:00,
2013-01-13 02:54:00,31.5,28.6,29.90,West,277,0.0,0.0,89,0.00,,---,0.00,VWS V14.01,2013-01-13 07:54:00,
2013-01-13 02:59:00,31.5,28.9,29.90,West,277,0.0,0.0,90,0.00,,---,0.00,VWS V14.01,2013-01-13 07:59:00,
2013-01-13 03:00:00,31.5,28.9,29.90,West,277,0.0,0.0,90,0.00,,---,0.00,VWS V14.01,2013-01-13 08:00:00,
2013-01-13 03:04:00,31.3,28.7,29.90,West,277,0.0,0.0,90,0.00,,---,0.00,VWS V14.01,2013-01-13 08:04:00,
2013-01-13 03:09:00,31.3,28.7,29.89,West,277,0.0,0.0,90,0.00,,---,0.00,VWS V14.01,2013-01-13 08:09:00,
2013-01-13 03:10:00,31.4,28.8,29.89,West,278,0.0,1.0,90,0.00,,---,0.00,VWS V14.01,2013-01-13 08:10:00,
2013-01-13 03:14:00,31.3,28.7,29.88,West,277,1.0,3.0,90,0.00,,---,0.00,VWS V14.01,2013-01-13 08:14:00,
2013-01-13 03:19:00,31.2,28.6,29.88,West,277,0.0,3.0,90,0.00,,---,0.00,VWS V14.01,2013-01-13 08:19:00,
2013-01-13 03:20:00,31.2,28.6,29.88,West,278,0.0,3.0,90,0.00,,---,0.00,VWS V14.01,2013-01-13 08:20:00,
2013-01-13 03:24:00,31.2,28.6,29.88,West,278,0.0,2.0,90,0.00,,---,0.00,VWS V14.01,2013-01-13 08:24:00,
2013-01-13 03:29:00,31.2,28.6,29.88,West,278,1.0,3.0,90,0.00,,---,0.00,VWS V14.01,2013-01-13 08:29:00,
2013-01-13 03:30:00,31.2,28.6,29.88,West,278,1.0,3.0,90,0.00,,---,0.00,VWS V14.01,2013-01-13 08:30:00,
2013-01-13 03:34:00,31.3,29.0,29.89,West,278,1.0,2.0,91,0.00,,---,0.00,VWS V14.01,2013-01-13 08:34:00,
2013-01-13 03:39:00,31.3,29.0,29.89,West,278,1.0,3.0,91,0.00,,---,0.00,VWS V14.01,2013-01-13 08:39:00,
2013-01-13 03:40:00,31.3,29.0,29.89,West,278,0.0,3.0,91,0.00,,---,0.00,VWS V14.01,2013-01-13 08:40:00,
2013-01-13 03:44:00,31.3,28.7,29.89,West,278,0.0,2.0,90,0.00,,---,0.00,VWS V14.01,2013-01-13 08:44:00,
2013-01-13 03:49:00,31.3,29.0,29.90,West,278,2.0,3.0,91,0.00,,---,0.00,VWS V14.01,2013-01-13 08:49:00,
2013-01-13 03:50:00,31.3,29.0,29.90,West,278,1.0,3.0,91,0.00,,---,0.00,VWS V14.01,2013-01-13 08:50:00,
2013-01-13 03:54:00,31.3,29.0,29.89,West,277,2.0,4.0,91,0.00,,---,0.00,VWS V14.01,2013-01-13 08:54:00,
2013-01-13 03:59:00,31.3,29.0,29.89,West,277,0.0,4.0,91,0.00,,---,0.00,VWS V14.01,2013-01-13 08:59:00,
2013-01-13 04:00:00,31.3,29.0,29.89,West,277,0.0,4.0,91,0.00,,---,0.00,VWS V14.01,2013-01-13 09:00:00,
2013-01-13 04:04:00,31.3,29.0,29.88,West,277,2.0,3.0,91,0.00,,---,0.00,VWS V14.01,2013-01-13 09:04:00,
2013-01-13 04:09:00,31.2,28.9,29.89,West,277,1.0,3.0,91,0.00,,---,0.00,VWS V14.01,2013-01-13 09:09:00,
2013-01-13 04:10:00,31.2,28.9,29.89,West,277,1.0,3.0,91,0.00,,---,0.00,VWS V14.01,2013-01-13 09:10:00,
2013-01-13 04:14:00,31.2,28.9,29.89,West,277,3.0,4.0,91,0.00,,---,0.00,VWS V14.01,2013-01-13 09:14:00,
2013-01-13 04:19:00,31.0,29.0,29.88,West,277,1.0,4.0,92,0.00,,---,0.00,VWS V14.01,2013-01-13 09:19:00,
2013-01-13 04:20:00,31.1,28.8,29.88,West,277,0.0,4.0,91,0.00,,---,0.00,VWS V14.01,2013-01-13 09:20:00,
2013-01-13 04:24:00,31.1,28.8,29.89,West,277,0.0,3.0,91,0.00,,---,0.00,VWS V14.01,2013-01-13 09:24:00,
2013-01-13 04:29:00,31.0,28.7,29.88,West,277,2.0,3.0,91,0.00,,---,0.00,VWS V14.01,2013-01-13 09:29:00,
2013-01-13 04:30:00,31.1,28.8,29.88,West,277,0.0,3.0,91,0.00,,---,0.00,VWS V14.01,2013-01-13 09:30:00,
2013-01-13 04:34:00,31.0,28.7,29.87,West,277,0.0,3.0,91,0.00,,---,0.00,VWS V14.01,2013-01-13 09:34:00,
2013-01-13 04:39:00,30.9,28.6,29.87,West,277,0.0,3.0,91,0.00,,---,0.00,VWS V14.01,2013-01-13 09:39:00,
2013-01-13 04:40:00,30.9,28.6,29.87,West,277,0.0,3.0,91,0.00,,---,0.00,VWS V14.01,2013-01-13 09:40:00,
2013-01-13 04:44:00,30.9,28.6,29.88,West,277,0.0,3.0,91,0.00,,---,0.00,VWS V14.01,2013-01-13 09:44:00,
2013-01-13 04:49:00,31.0,28.4,29.87,West,277,0.0,3.0,90,0.00,,---,0.00,VWS V14.01,2013-01-13 09:49:00,
2013-01-13 04:50:00,31.1,28.5,29.87,West,277,1.0,3.0,90,0.00,,---,0.00,VWS V14.01,2013-01-13 09:50:00,
2013-01-13 04:54:00,30.9,28.6,29.86,West,280,1.0,4.0,91,0.00,,---,0.00,VWS V14.01,2013-01-13 09:54:00,
2013-01-13 04:59:00,30.9,28.3,29.85,West,280,0.0,4.0,90,0.00,,---,0.00,VWS V14.01,2013-01-13 09:59:00,
2013-01-13 05:00:00,30.9,28.3,29.85,West,280,0.0,4.0,90,0.00,,---,0.00,VWS V14.01,2013-01-13 10:00:00,
2013-01-13 05:04:00,30.9,28.6,29.84,West,280,2.0,3.0,91,0.00,,---,0.00,VWS V14.01,2013-01-13 10:04:00,
2013-01-13 05:09:00,30.9,28.3,29.84,West,280,0.0,3.0,90,0.00,,---,0.00,VWS V14.01,2013-01-13 10:09:00,
2013-01-13 05:10:00,30.9,28.3,29.84,West,280,0.0,3.0,90,0.00,,---,0.00,VWS V14.01,2013-01-13 10:10:00,
2013-01-13 05:14:00,30.9,28.3,29.84,West,280,0.0,2.0,90,0.00,,---,0.00,VWS V14.01,2013-01-13 10:14:00,
2013-01-13 05:19:00,30.9,28.3,29.84,West,280,0.0,2.0,90,0.00,,---,0.00,VWS V14.01,2013-01-13 10:19:00,
2013-01-13 05:20:00,30.9,28.3,29.84,West,280,0.0,2.0,90,0.00,,---,0.00,VWS V14.01,2013-01-13 10:20:00,
2013-01-13 05:24:00,30.9,28.6,29.83,West,280,0.0,3.0,91,0.00,,---,0.00,VWS V14.01,2013-01-13 10:24:00,
2013-01-13 05:29:00,30.9,28.3,29.85,West,280,1.0,3.0,90,0.00,,---,0.00,VWS V14.01,2013-01-13 10:29:00,
2013-01-13 05:30:00,30.9,28.3,29.85,West,280,1.0,3.0,90,0.00,,---,0.00,VWS V14.01,2013-01-13 10:30:00,
2013-01-13 05:34:00,30.8,28.2,29.85,West,280,0.0,3.0,90,0.00,,---,0.00,VWS V14.01,2013-01-13 10:34:00,
2013-01-13 05:39:00,30.9,28.6,29.84,West,280,0.0,3.0,91,0.00,,---,0.00,VWS V14.01,2013-01-13 10:39:00,
2013-01-13 05:40:00,30.9,28.6,29.84,West,280,0.0,3.0,91,0.00,,---,0.00,VWS V14.01,2013-01-13 10:40:00,
2013-01-13 05:45:00,30.7,28.4,29.84,West,280,0.0,0.0,91,0.00,,---,0.00,VWS V14.01,2013-01-13 10:45:00,
2013-01-13 05:50:00,30.8,28.5,29.84,West,280,0.0,2.0,91,0.00,,---,0.00,VWS V14.01,2013-01-13 10:50:00,
2013-01-13 05:55:00,30.7,28.4,29.83,West,280,1.0,2.0,91,0.00,,---,0.00,VWS V14.01,2013-01-13 10:55:00,
2013-01-13 06:00:00,30.8,28.5,29.83,West,280,1.0,1.0,91,0.00,,---,0.00,VWS V14.01,2013-01-13 11:00:00,
2013-01-13 06:05:00,30.6,28.3,29.83,West,280,0.0,3.0,91,0.00,,---,0.00,VWS V14.01,2013-01-13 11:05:00,
2013-01-13 06:10:00,30.8,28.5,29.85,West,280,1.0,1.0,91,0.00,,---,0.00,VWS V14.01,2013-01-13 11:10:00,
2013-01-13 06:15:00,30.8,28.2,29.85,West,280,0.0,2.0,90,0.00,,---,0.00,VWS V14.01,2013-01-13 11:15:00,
2013-01-13 06:20:00,30.7,28.4,29.87,West,280,0.0,0.0,91,0.00,,---,0.00,VWS V14.01,2013-01-13 11:20:00,
2013-01-13 06:25:00,30.8,28.5,29.86,West,280,0.0,3.0,91,0.00,,---,0.00,VWS V14.01,2013-01-13 11:25:00,
2013-01-13 06:30:00,30.7,28.4,29.87,West,280,0.0,0.0,91,0.00,,---,0.00,VWS V14.01,2013-01-13 11:30:00,
2013-01-13 06:35:00,30.8,28.5,29.87,West,280,0.0,0.0,91,0.00,,---,0.00,VWS V14.01,2013-01-13 11:35:00,
2013-01-13 06:40:00,30.6,28.3,29.87,West,280,0.0,0.0,91,0.00,,---,0.00,VWS V14.01,2013-01-13 11:40:00,
2013-01-13 06:45:00,30.6,28.3,29.87,West,280,0.0,2.0,91,0.00,,---,0.00,VWS V14.01,2013-01-13 11:45:00,
2013-01-13 06:50:00,30.6,28.3,29.87,West,280,0.0,0.0,91,0.00,,---,0.00,VWS V14.01,2013-01-13 11:50:00,
2013-01-13 06:55:00,30.6,28.3,29.88,West,280,0.0,2.0,91,0.00,,---,0.00,VWS V14.01,2013-01-13 11:55:00,
2013-01-13 07:00:00,30.6,28.3,29.88,West,280,0.0,0.0,91,0.00,,---,0.00,VWS V14.01,2013-01-13 12:00:00,
2013-01-13 07:05:00,30.6,28.3,29.88,West,280,1.0,3.0,91,0.00,,---,0.00,VWS V14.01,2013-01-13 12:05:00,
2013-01-13 07:10:00,30.6,28.3,29.89,West,280,1.0,2.0,91,0.00,,---,0.00,VWS V14.01,2013-01-13 12:10:00,
2013-01-13 07:15:00,30.6,28.3,29.89,West,280,0.0,2.0,91,0.00,,---,0.00,VWS V14.01,2013-01-13 12:15:00,
2013-01-13 07:20:00,30.6,28.3,29.88,West,280,0.0,2.0,91,0.00,,---,0.00,VWS V14.01,2013-01-13 12:20:00,
2013-01-13 07:25:00,30.6,28.3,29.88,West,280,1.0,2.0,91,0.00,,---,0.00,VWS V14.01,2013-01-13 12:25:00,
2013-01-13 07:30:00,30.6,28.3,29.87,West,280,0.0,0.0,91,0.00,,---,0.00,VWS V14.01,2013-01-13 12:30:00,
2013-01-13 07:35:00,30.6,28.3,29.88,West,280,0.0,3.0,91,0.00,,---,0.00,VWS V14.01,2013-01-13 12:35:00,
2013-01-13 07:40:00,30.6,28.3,29.87,West,280,0.0,2.0,91,0.00,,---,0.00,VWS V14.01,2013-01-13 12:40:00,
2013-01-13 07:45:00,30.6,28.3,29.86,West,280,0.0,2.0,91,0.00,,---,0.00,VWS V14.01,2013-01-13 12:45:00,
2013-01-13 07:50:00,30.6,28.3,29.86,West,280,0.0,2.0,91,0.00,,---,0.00,VWS V14.01,2013-01-13 12:50:00,
2013-01-13 07:55:00,30.6,28.3,29.86,West,280,0.0,2.0,91,0.00,,---,0.00,VWS V14.01,2013-01-13 12:55:00,
2013-01-13 08:00:00,30.6,28.3,29.86,West,280,0.0,0.0,91,0.00,,---,0.00,VWS V14.01,2013-01-13 13:00:00,
2013-01-13 08:05:00,30.6,28.3,29.86,West,280,0.0,2.0,91,0.00,,---,0.00,VWS V14.01,2013-01-13 13:05:00,
2013-01-13 08:10:00,30.6,28.3,29.87,West,280,0.0,0.0,91,0.00,,---,0.00,VWS V14.01,2013-01-13 13:10:00,
2013-01-13 08:15:00,30.6,28.3,29.88,West,280,0.0,0.0,91,0.00,,---,0.00,VWS V14.01,2013-01-13 13:15:00,
2013-01-13 08:20:00,30.6,28.3,29.88,West,280,0.0,0.0,91,0.00,,---,0.00,VWS V14.01,2013-01-13 13:20:00,
2013-01-13 08:25:00,30.6,28.3,29.89,West,280,0.0,0.0,91,0.00,,---,0.00,VWS V14.01,2013-01-13 13:25:00,
2013-01-13 08:30:00,30.6,28.3,29.89,West,280,0.0,0.0,91,0.00,,---,0.00,VWS V14.01,2013-01-13 13:30:00,
2013-01-13 08:35:00,30.6,0.0,29.89,North,355,0.0,0.0,100,0.00,,---,0.00,VWS V14.01,2013-01-13 13:35:00,
2013-01-13 08:40:00,30.6,0.0,29.89,North,0,0.0,0.0,100,0.00,,---,0.00,VWS V14.01,2013-01-13 13:40:00,
2013-01-13 08:45:00,30.6,0.0,29.90,North,0,0.0,0.0,100,0.00,,---,0.00,VWS V14.01,2013-01-13 13:45:00,
2013-01-13 08:50:00,30.6,28.3,29.91,West,280,0.0,0.0,91,0.00,,---,0.00,VWS V14.01,2013-01-13 13:50:00,
2013-01-13 08:55:00,30.6,28.3,29.91,West,280,3.0,3.0,91,0.00,,---,0.00,VWS V14.01,2013-01-13 13:55:00,
2013-01-13 09:00:00,30.6,28.3,29.91,West,280,1.0,1.0,91,0.00,,---,0.00,VWS V14.01,2013-01-13 14:00:00,
2013-01-13 09:05:00,30.6,28.3,29.91,West,280,0.0,2.0,91,0.00,,---,0.00,VWS V14.01,2013-01-13 14:05:00,
2013-01-13 09:10:00,30.6,28.3,29.91,West,280,0.0,2.0,91,0.00,,---,0.00,VWS V14.01,2013-01-13 14:10:00,
2013-01-13 09:15:00,30.6,28.3,29.90,West,280,2.0,3.0,91,0.00,,---,0.00,VWS V14.01,2013-01-13 14:15:00,
2013-01-13 09:20:00,30.6,28.3,29.90,West,280,1.0,2.0,91,0.00,,---,0.00,VWS V14.01,2013-01-13 14:20:00,
2013-01-13 09:26:00,30.6,28.3,29.91,West,280,0.0,2.0,91,0.00,,---,0.00,VWS V14.01,2013-01-13 14:26:00,
2013-01-13 09:30:00,30.6,28.3,29.90,West,280,0.0,2.0,91,0.00,,---,0.00,VWS V14.01,2013-01-13 14:30:00,
2013-01-13 09:31:00,30.8,28.5,29.90,West,280,0.0,3.0,91,0.00,,---,0.00,VWS V14.01,2013-01-13 14:31:00,
2013-01-13 09:36:00,30.8,28.5,29.90,West,280,0.0,3.0,91,0.00,,---,0.00,VWS V14.01,2013-01-13 14:36:00,
2013-01-13 09:40:00,30.8,28.5,29.91,West,280,0.0,3.0,91,0.00,,---,0.00,VWS V14.01,2013-01-13 14:40:00,
2013-01-13 09:41:00,30.8,28.5,29.91,West,280,0.0,0.0,91,0.00,,---,0.00,VWS V14.01,2013-01-13 14:41:00,
2013-01-13 09:46:00,30.8,28.5,29.91,West,280,2.0,3.0,91,0.00,,---,0.00,VWS V14.01,2013-01-13 14:46:00,
2013-01-13 09:50:00,30.8,28.5,29.91,West,280,1.0,3.0,91,0.00,,---,0.00,VWS V14.01,2013-01-13 14:50:00,
2013-01-13 09:51:00,30.9,28.6,29.90,West,280,0.0,2.0,91,0.00,,---,0.00,VWS V14.01,2013-01-13 14:51:00,
2013-01-13 09:56:00,30.9,28.6,29.91,West,279,2.0,3.0,91,0.00,,---,0.00,VWS V14.01,2013-01-13 14:56:00,
2013-01-13 10:00:00,30.9,28.6,29.90,West,280,2.0,3.0,91,0.00,,---,0.00,VWS V14.01,2013-01-13 15:00:00,
2013-01-13 10:01:00,30.9,28.6,29.90,West,280,2.0,3.0,91,0.00,,---,0.00,VWS V14.01,2013-01-13 15:01:00,
2013-01-13 10:06:00,30.7,28.4,29.90,West,279,3.0,3.0,91,0.00,,---,0.00,VWS V14.01,2013-01-13 15:06:00,
2013-01-13 10:10:00,30.8,28.5,29.91,West,280,2.0,3.0,91,0.00,,---,0.00,VWS V14.01,2013-01-13 15:10:00,
2013-01-13 10:11:00,30.9,28.6,29.91,West,280,1.0,2.0,91,0.00,,---,0.00,VWS V14.01,2013-01-13 15:11:00,
2013-01-13 10:16:00,30.9,28.6,29.91,West,280,3.0,3.0,91,0.00,,---,0.00,VWS V14.01,2013-01-13 15:16:00,
2013-01-13 10:20:00,30.9,28.6,29.91,West,279,0.0,3.0,91,0.00,,---,0.00,VWS V14.01,2013-01-13 15:20:00,
2013-01-13 10:21:00,30.9,28.6,29.92,West,279,0.0,2.0,91,0.00,,---,0.00,VWS V14.01,2013-01-13 15:21:00,
2013-01-13 10:26:00,30.9,28.6,29.91,West,279,1.0,2.0,91,0.00,,---,0.00,VWS V14.01,2013-01-13 15:26:00,
2013-01-13 10:30:00,30.9,28.6,29.91,SSW,207,1.0,5.0,91,0.00,,---,0.00,VWS V14.01,2013-01-13 15:30:00,
2013-01-13 10:31:00,30.9,28.6,29.92,SW,233,2.0,4.0,91,0.00,,---,0.00,VWS V14.01,2013-01-13 15:31:00,
2013-01-13 10:36:00,30.9,28.6,29.92,SW,234,1.0,4.0,91,0.00,,---,0.00,VWS V14.01,2013-01-13 15:36:00,
2013-01-13 10:40:00,30.9,28.6,29.92,SW,234,1.0,4.0,91,0.00,,---,0.00,VWS V14.01,2013-01-13 15:40:00,
2013-01-13 10:41:00,30.9,28.3,29.93,SW,234,1.0,3.0,90,0.00,,---,0.00,VWS V14.01,2013-01-13 15:41:00,
2013-01-13 10:46:00,30.8,28.5,29.92,SW,234,2.0,3.0,91,0.00,,---,0.00,VWS V14.01,2013-01-13 15:46:00,
2013-01-13 10:50:00,30.9,28.6,29.92,SW,233,1.0,4.0,91,0.00,,---,0.00,VWS V14.01,2013-01-13 15:50:00,
2013-01-13 10:51:00,30.9,28.6,29.92,SW,233,2.0,3.0,91,0.00,,---,0.00,VWS V14.01,2013-01-13 15:51:00,
2013-01-13 10:56:00,30.9,28.9,29.92,SW,233,0.0,3.0,92,0.00,,---,0.00,VWS V14.01,2013-01-13 15:56:00,
2013-01-13 11:00:00,30.9,28.9,29.92,SW,233,0.0,3.0,92,0.00,,---,0.00,VWS V14.01,2013-01-13 16:00:00,
2013-01-13 11:01:00,30.9,28.6,29.92,SW,233,2.0,3.0,91,0.00,,---,0.00,VWS V14.01,2013-01-13 16:01:00,
2013-01-13 11:06:00,31.0,28.7,29.92,SW,233,0.0,4.0,91,0.00,,---,0.00,VWS V14.01,2013-01-13 16:06:00,
2013-01-13 11:10:00,31.1,28.8,29.92,SW,227,1.0,5.0,91,0.00,,---,0.00,VWS V14.01,2013-01-13 16:10:00,
2013-01-13 11:11:00,31.1,28.8,29.92,SW,223,1.0,3.0,91,0.00,,---,0.00,VWS V14.01,2013-01-13 16:11:00,
2013-01-13 11:16:00,31.0,28.7,29.91,SW,231,3.0,5.0,91,0.00,,---,0.00,VWS V14.01,2013-01-13 16:16:00,
2013-01-13 11:20:00,31.0,28.7,29.91,SW,231,0.0,5.0,91,0.00,,---,0.00,VWS V14.01,2013-01-13 16:20:00,
2013-01-13 11:21:00,31.1,28.8,29.91,SW,232,2.0,4.0,91,0.00,,---,0.00,VWS V14.01,2013-01-13 16:21:00,
2013-01-13 11:26:00,31.2,28.9,29.91,South,191,1.0,5.0,91,0.00,,---,0.00,VWS V14.01,2013-01-13 16:26:00,
2013-01-13 11:30:00,31.2,29.1,29.91,South,191,0.0,5.0,92,0.00,,---,0.00,VWS V14.01,2013-01-13 16:30:00,
2013-01-13 11:31:00,31.2,29.1,29.91,South,191,0.0,3.0,92,0.00,,---,0.00,VWS V14.01,2013-01-13 16:31:00,
2013-01-13 11:36:00,31.2,29.1,29.91,South,191,0.0,5.0,92,0.00,,---,0.00,VWS V14.01,2013-01-13 16:36:00,
2013-01-13 11:40:00,31.2,28.9,29.91,SSW,213,1.0,6.0,91,0.00,,---,0.00,VWS V14.01,2013-01-13 16:40:00,
2013-01-13 11:41:00,31.2,29.1,29.91,SW,214,0.0,3.0,92,0.00,,---,0.00,VWS V14.01,2013-01-13 16:41:00,
2013-01-13 11:46:00,31.2,28.9,29.91,SSW,195,3.0,5.0,91,0.00,,---,0.00,VWS V14.01,2013-01-13 16:46:00,
2013-01-13 11:50:00,31.2,28.9,29.91,SSW,201,3.0,6.0,91,0.00,,---,0.00,VWS V14.01,2013-01-13 16:50:00,
2013-01-13 11:51:00,31.2,28.9,29.91,WSW,243,4.0,7.0,91,0.00,,---,0.00,VWS V14.01,2013-01-13 16:51:00,
2013-01-13 11:56:00,31.2,29.1,29.91,SSW,203,1.0,7.0,92,0.01,,---,0.01,VWS V14.01,2013-01-13 16:56:00,
2013-01-13 12:00:00,31.2,29.1,29.90,South,171,1.0,7.0,92,0.01,,---,0.01,VWS V14.01,2013-01-13 17:00:00,
2013-01-13 12:01:00,31.2,28.9,29.90,South,187,4.0,4.0,91,0.01,,---,0.01,VWS V14.01,2013-01-13 17:01:00,
2013-01-13 12:06:00,31.2,29.1,29.91,SSW,213,1.0,6.0,92,0.01,,---,0.01,VWS V14.01,2013-01-13 17:06:00,
2013-01-13 12:10:00,31.2,29.1,29.91,South,189,0.0,6.0,92,0.01,,---,0.01,VWS V14.01,2013-01-13 17:10:00,
2013-01-13 12:11:00,31.2,29.1,29.91,SSW,199,4.0,6.0,92,0.01,,---,0.01,VWS V14.01,2013-01-13 17:11:00,
2013-01-13 12:16:00,31.2,29.1,29.91,SSW,202,6.0,8.0,92,0.01,,---,0.01,VWS V14.01,2013-01-13 17:16:00,
2013-01-13 12:20:00,31.2,28.9,29.90,SSW,199,1.0,8.0,91,0.01,,---,0.01,VWS V14.01,2013-01-13 17:20:00,
2013-01-13 12:21:00,31.2,28.9,29.90,SW,228,6.0,6.0,91,0.01,,---,0.01,VWS V14.01,2013-01-13 17:21:00,
2013-01-13 12:26:00,31.2,28.9,29.88,South,190,2.0,7.0,91,0.01,,---,0.01,VWS V14.01,2013-01-13 17:26:00,
2013-01-13 12:30:00,31.2,28.9,29.89,WSW,250,3.0,7.0,91,0.01,,---,0.01,VWS V14.01,2013-01-13 17:30:00,
2013-01-13 12:31:00,31.2,28.9,29.89,South,185,6.0,6.0,91,0.01,,---,0.01,VWS V14.01,2013-01-13 17:31:00,
2013-01-13 12:36:00,31.2,28.9,29.89,SSW,205,3.0,6.0,91,0.01,,---,0.01,VWS V14.01,2013-01-13 17:36:00,
2013-01-13 12:40:00,31.2,28.9,29.88,SSW,205,3.0,6.0,91,0.01,,---,0.01,VWS V14.01,2013-01-13 17:40:00,
2013-01-13 12:41:00,31.2,28.9,29.88,WSW,243,3.0,5.0,91,0.01,,---,0.01,VWS V14.01,2013-01-13 17:41:00,
2013-01-13 12:46:00,31.2,28.9,29.87,SSW,192,2.0,7.0,91,0.01,,---,0.01,VWS V14.01,2013-01-13 17:46:00,
2013-01-13 12:50:00,31.3,29.0,29.87,WSW,240,5.0,7.0,91,0.01,,---,0.01,VWS V14.01,2013-01-13 17:50:00,
2013-01-13 12:51:00,31.3,29.0,29.87,SW,215,2.0,6.0,91,0.01,,---,0.01,VWS V14.01,2013-01-13 17:51:00,
2013-01-13 12:56:00,31.3,29.0,29.86,WSW,242,1.0,6.0,91,0.01,,---,0.01,VWS V14.01,2013-01-13 17:56:00,
2013-01-13 13:00:00,31.3,29.0,29.87,WSW,251,2.0,6.0,91,0.01,,---,0.01,VWS V14.01,2013-01-13 18:00:00,
2013-01-13 13:01:00,31.5,29.2,29.86,WSW,251,3.0,4.0,91,0.00,,---,0.01,VWS V14.01,2013-01-13 18:01:00,
2013-01-13 13:06:00,31.5,29.2,29.85,SW,222,4.0,6.0,91,0.00,,---,0.01,VWS V14.01,2013-01-13 18:06:00,
2013-01-13 13:10:00,31.5,29.2,29.86,West,274,1.0,6.0,91,0.00,,---,0.01,VWS V14.01,2013-01-13 18:10:00,
2013-01-13 13:11:00,31.6,29.3,29.86,SSW,194,1.0,4.0,91,0.00,,---,0.01,VWS V14.01,2013-01-13 18:11:00,
2013-01-13 13:16:00,31.5,29.2,29.86,WSW,248,1.0,7.0,91,0.00,,---,0.01,VWS V14.01,2013-01-13 18:16:00,
2013-01-13 13:20:00,31.6,29.3,29.86,SW,226,3.0,7.0,91,0.00,,---,0.01,VWS V14.01,2013-01-13 18:20:00,
2013-01-13 13:21:00,31.6,29.0,29.86,WSW,248,6.0,6.0,90,0.00,,---,0.01,VWS V14.01,2013-01-13 18:21:00,
2013-01-13 13:26:00,31.6,29.3,29.87,West,268,6.0,6.0,91,0.00,,---,0.01,VWS V14.01,2013-01-13 18:26:00,
2013-01-13 13:30:00,31.8,29.5,29.86,WSW,247,2.0,6.0,91,0.00,,---,0.01,VWS V14.01,2013-01-13 18:30:00,
2013-01-13 13:31:00,31.8,29.5,29.86,WSW,250,1.0,4.0,91,0.00,,---,0.01,VWS V14.01,2013-01-13 18:31:00,
2013-01-13 13:37:00,31.8,29.5,29.87,WSW,241,0.0,5.0,91,0.00,,---,0.01,VWS V14.01,2013-01-13 18:37:00,
2013-01-13 13:40:00,31.8,29.2,29.87,SW,229,1.0,5.0,90,0.00,,---,0.01,VWS V14.01,2013-01-13 18:40:00,
2013-01-13 13:42:00,31.6,29.0,29.87,WNW,285,0.0,5.0,90,0.00,,---,0.01,VWS V14.01,2013-01-13 18:42:00,
2013-01-13 13:47:00,31.6,29.0,29.86,WNW,303,0.0,6.0,90,0.00,,---,0.01,VWS V14.01,2013-01-13 18:47:00,
2013-01-13 13:50:00,31.6,29.0,29.86,WSW,239,3.0,6.0,90,0.00,,---,0.01,VWS V14.01,2013-01-13 18:50:00,
2013-01-13 13:52:00,31.6,29.0,29.86,SW,236,3.0,5.0,90,0.00,,---,0.01,VWS V14.01,2013-01-13 18:52:00,
2013-01-13 13:57:00,31.4,28.8,29.86,SE,144,1.0,7.0,90,0.00,,---,0.01,VWS V14.01,2013-01-13 18:57:00,
2013-01-13 14:00:00,31.5,28.9,29.87,WSW,244,7.0,8.0,90,0.00,,---,0.01,VWS V14.01,2013-01-13 19:00:00,
2013-01-13 14:02:00,31.5,28.9,29.87,WNW,284,2.0,8.0,90,0.00,,---,0.01,VWS V14.01,2013-01-13 19:02:00,
2013-01-13 14:07:00,31.5,28.9,29.87,WSW,250,3.0,8.0,90,0.00,,---,0.01,VWS V14.01,2013-01-13 19:07:00,
2013-01-13 14:10:00,31.5,28.9,29.87,SSW,197,2.0,227.0,90,0.00,,---,0.01,VWS V14.01,2013-01-13 19:10:00,
2013-01-13 14:12:00,31.5,28.9,29.87,SW,228,1.0,3.0,90,0.00,,---,0.01,VWS V14.01,2013-01-13 19:12:00,
2013-01-13 14:17:00,31.5,28.6,29.86,South,174,1.0,7.0,89,0.00,,---,0.01,VWS V14.01,2013-01-13 19:17:00,
2013-01-13 14:20:00,31.5,28.6,29.86,SW,226,5.0,7.0,89,0.00,,---,0.01,VWS V14.01,2013-01-13 19:20:00,
2013-01-13 14:22:00,31.5,28.6,29.86,WSW,242,4.0,6.0,89,0.00,,---,0.01,VWS V14.01,2013-01-13 19:22:00,
2013-01-13 14:27:00,31.5,28.9,29.86,SSW,206,2.0,6.0,90,0.00,,---,0.01,VWS V14.01,2013-01-13 19:27:00,
2013-01-13 14:30:00,31.5,28.6,29.85,WSW,249,6.0,6.0,89,0.00,,---,0.01,VWS V14.01,2013-01-13 19:30:00,
2013-01-13 14:32:00,31.6,28.7,29.85,West,263,1.0,6.0,89,0.00,,---,0.01,VWS V14.01,2013-01-13 19:32:00,
2013-01-13 14:37:00,31.6,28.7,29.85,WSW,254,0.0,6.0,89,0.00,,---,0.01,VWS V14.01,2013-01-13 19:37:00,
2013-01-13 14:40:00,31.8,28.9,29.87,WSW,253,2.0,6.0,89,0.00,,---,0.01,VWS V14.01,2013-01-13 19:40:00,
2013-01-13 14:42:00,31.8,28.9,29.87,WSW,253,3.0,4.0,89,0.00,,---,0.01,VWS V14.01,2013-01-13 19:42:00,
2013-01-13 14:47:00,31.7,28.8,29.87,WNW,282,3.0,6.0,89,0.00,,---,0.01,VWS V14.01,2013-01-13 19:47:00,
2013-01-13 14:50:00,31.6,28.7,29.88,West,267,4.0,7.0,89,0.00,,---,0.01,VWS V14.01,2013-01-13 19:50:00,
2013-01-13 14:52:00,31.6,28.7,29.87,WNW,297,2.0,4.0,89,0.00,,---,0.01,VWS V14.01,2013-01-13 19:52:00,
2013-01-13 14:57:00,31.6,28.7,29.88,SW,216,3.0,10.0,89,0.00,,---,0.01,VWS V14.01,2013-01-13 19:57:00,
2013-01-13 15:00:00,31.5,28.6,29.88,SW,220,1.0,10.0,89,0.00,,---,0.01,VWS V14.01,2013-01-13 20:00:00,
2013-01-13 15:02:00,31.6,28.7,29.88,SSW,199,1.0,4.0,89,0.00,,---,0.01,VWS V14.01,2013-01-13 20:02:00,
2013-01-13 15:07:00,31.5,28.6,29.88,WSW,243,0.0,219.0,89,0.00,,---,0.01,VWS V14.01,2013-01-13 20:07:00,
2013-01-13 15:10:00,31.5,28.4,29.89,SW,229,1.0,219.0,88,0.00,,---,0.01,VWS V14.01,2013-01-13 20:10:00,
2013-01-13 15:12:00,31.5,28.4,29.90,WSW,249,3.0,10.0,88,0.00,,---,0.01,VWS V14.01,2013-01-13 20:12:00,
2013-01-13 15:17:00,31.5,28.4,29.90,SW,224,3.0,10.0,88,0.00,,---,0.01,VWS V14.01,2013-01-13 20:17:00,
2013-01-13 15:20:00,31.5,28.4,29.91,WSW,248,0.0,10.0,88,0.00,,---,0.01,VWS V14.01,2013-01-13 20:20:00,
2013-01-13 15:22:00,31.5,28.4,29.90,SSW,205,2.0,6.0,88,0.00,,---,0.01,VWS V14.01,2013-01-13 20:22:00,
2013-01-13 15:27:00,31.5,28.4,29.90,SSE,153,3.0,6.0,88,0.00,,---,0.01,VWS V14.01,2013-01-13 20:27:00,
2013-01-13 15:30:00,31.3,28.2,29.90,WSW,243,5.0,7.0,88,0.00,,---,0.01,VWS V14.01,2013-01-13 20:30:00,
2013-01-13 15:32:00,31.4,28.0,29.90,South,172,3.0,5.0,87,0.00,,---,0.01,VWS V14.01,2013-01-13 20:32:00,
2013-01-13 15:37:00,31.2,28.1,29.90,WSW,237,7.0,7.0,88,0.00,,---,0.01,VWS V14.01,2013-01-13 20:37:00,
2013-01-13 15:40:00,31.0,27.9,29.90,SSW,200,2.0,7.0,88,0.00,,---,0.01,VWS V14.01,2013-01-13 20:40:00,
2013-01-13 15:42:00,31.0,27.9,29.91,South,178,5.0,6.0,88,0.00,,---,0.01,VWS V14.01,2013-01-13 20:42:00,
2013-01-13 15:47:00,31.1,28.0,29.91,SSW,203,4.0,7.0,88,0.00,,---,0.01,VWS V14.01,2013-01-13 20:47:00,
2013-01-13 15:50:00,30.9,27.8,29.90,SSW,194,3.0,7.0,88,0.00,,---,0.01,VWS V14.01,2013-01-13 20:50:00,
2013-01-13 15:52:00,30.9,28.0,29.90,SW,226,1.0,4.0,89,0.00,,---,0.01,VWS V14.01,2013-01-13 20:52:00,
2013-01-13 15:57:00,31.1,28.2,29.90,South,174,3.0,6.0,89,0.00,,---,0.01,VWS V14.01,2013-01-13 20:57:00,
2013-01-13 16:00:00,31.1,28.2,29.90,SSW,207,3.0,6.0,89,0.00,,---,0.01,VWS V14.01,2013-01-13 21:00:00,
2013-01-13 16:02:00,31.0,28.1,29.90,SSE,153,3.0,5.0,89,0.00,,---,0.01,VWS V14.01,2013-01-13 21:02:00,
2013-01-13 16:07:00,31.2,28.3,29.90,SSE,162,3.0,6.0,89,0.00,,---,0.01,VWS V14.01,2013-01-13 21:07:00,
2013-01-13 16:10:00,31.2,28.3,29.90,WSW,253,2.0,6.0,89,0.00,,---,0.01,VWS V14.01,2013-01-13 21:10:00,
2013-01-13 16:12:00,31.4,28.5,29.90,SSE,164,1.0,4.0,89,0.00,,---,0.01,VWS V14.01,2013-01-13 21:12:00,
2013-01-13 16:17:00,31.3,28.7,29.91,NW,318,9.0,16.0,90,0.00,,---,0.01,VWS V14.01,2013-01-13 21:17:00,
2013-01-13 16:20:00,31.0,28.1,29.91,North,357,4.0,16.0,89,0.00,,---,0.01,VWS V14.01,2013-01-13 21:20:00,
2013-01-13 16:22:00,30.9,28.0,29.91,NNW,345,10.0,13.0,89,0.00,,---,0.01,VWS V14.01,2013-01-13 21:22:00,
2013-01-13 16:27:00,30.5,27.4,29.91,North,350,4.0,13.0,88,0.00,,---,0.01,VWS V14.01,2013-01-13 21:27:00,
2013-01-13 16:30:00,30.3,27.2,29.90,NNW,347,4.0,13.0,88,0.00,,---,0.01,VWS V14.01,2013-01-13 21:30:00,
2013-01-13 16:32:00,30.2,27.1,29.90,NNW,344,4.0,7.0,88,0.00,,---,0.01,VWS V14.01,2013-01-13 21:32:00,
2013-01-13 16:37:00,29.9,26.8,29.90,North,352,0.0,9.0,88,0.00,,---,0.01,VWS V14.01,2013-01-13 21:37:00,
2013-01-13 16:40:00,29.9,26.8,29.90,NNW,344,0.0,9.0,88,0.00,,---,0.01,VWS V14.01,2013-01-13 21:40:00,
2013-01-13 16:42:00,29.7,26.6,29.90,NNW,331,3.0,6.0,88,0.00,,---,0.01,VWS V14.01,2013-01-13 21:42:00,
2013-01-13 16:47:00,29.5,26.4,29.90,NNW,347,5.0,6.0,88,0.00,,---,0.01,VWS V14.01,2013-01-13 21:47:00,
2013-01-13 16:50:00,29.6,26.8,29.91,North,359,2.0,6.0,89,0.00,,---,0.01,VWS V14.01,2013-01-13 21:50:00,
2013-01-13 16:52:00,29.5,26.4,29.92,NNW,347,0.0,5.0,88,0.00,,---,0.01,VWS V14.01,2013-01-13 21:52:00,
2013-01-13 16:58:00,29.5,26.7,29.92,NNW,347,1.0,5.0,89,0.00,,---,0.01,VWS V14.01,2013-01-13 21:58:00,
2013-01-13 17:00:00,29.6,26.5,29.92,NNW,347,4.0,5.0,88,0.00,,---,0.01,VWS V14.01,2013-01-13 22:00:00,
2013-01-13 17:02:00,29.6,26.5,29.92,WNW,301,4.0,6.0,88,0.00,,---,0.01,VWS V14.01,2013-01-13 22:02:00,
2013-01-13 17:08:00,29.5,26.4,29.91,North,352,4.0,6.0,88,0.00,,---,0.01,VWS V14.01,2013-01-13 22:08:00,
2013-01-13 17:10:00,29.5,26.4,29.90,North,352,4.0,6.0,88,0.00,,---,0.01,VWS V14.01,2013-01-13 22:10:00,
2013-01-13 17:13:00,29.6,26.5,29.89,North,357,2.0,6.0,88,0.00,,---,0.01,VWS V14.01,2013-01-13 22:13:00,
2013-01-13 17:18:00,29.5,26.4,29.88,North,354,6.0,7.0,88,0.00,,---,0.01,VWS V14.01,2013-01-13 22:18:00,
2013-01-13 17:20:00,29.5,26.4,29.89,NNW,348,5.0,7.0,88,0.00,,---,0.01,VWS V14.01,2013-01-13 22:20:00,
2013-01-13 17:23:00,29.6,26.5,29.87,North,359,3.0,7.0,88,0.00,,---,0.01,VWS V14.01,2013-01-13 22:23:00,
2013-01-13 17:28:00,29.5,26.4,29.87,North,0,7.0,7.0,88,0.00,,---,0.01,VWS V14.01,2013-01-13 22:28:00,
2013-01-13 17:30:00,29.5,26.4,29.88,NNW,330,2.0,7.0,88,0.00,,---,0.01,VWS V14.01,2013-01-13 22:30:00,
2013-01-13 17:33:00,29.5,26.4,29.88,NNW,346,6.0,6.0,88,0.00,,---,0.01,VWS V14.01,2013-01-13 22:33:00,
2013-01-13 17:38:00,29.4,26.3,29.87,North,2,9.0,9.0,88,0.00,,---,0.01,VWS V14.01,2013-01-13 22:38:00,
2013-01-13 17:40:00,29.4,26.3,29.87,North,358,3.0,9.0,88,0.00,,---,0.01,VWS V14.01,2013-01-13 22:40:00,
2013-01-13 17:43:00,29.4,26.3,29.87,NNW,338,5.0,7.0,88,0.00,,---,0.01,VWS V14.01,2013-01-13 22:43:00,
2013-01-13 17:48:00,29.4,26.3,29.87,North,8,1.0,8.0,88,0.00,,---,0.01,VWS V14.01,2013-01-13 22:48:00,
2013-01-13 17:50:00,29.2,26.1,29.87,NNW,332,6.0,8.0,88,0.00,,---,0.01,VWS V14.01,2013-01-13 22:50:00,
2013-01-13 17:53:00,29.2,26.1,29.87,North,354,3.0,6.0,88,0.00,,---,0.01,VWS V14.01,2013-01-13 22:53:00,
2013-01-13 17:58:00,29.2,26.1,29.88,North,359,0.0,7.0,88,0.00,,---,0.01,VWS V14.01,2013-01-13 22:58:00,
2013-01-13 18:00:00,29.3,26.2,29.88,North,359,0.0,7.0,88,0.00,,---,0.01,VWS V14.01,2013-01-13 23:00:00,
2013-01-13 18:03:00,29.2,26.1,29.88,North,1,5.0,6.0,88,0.00,,---,0.01,VWS V14.01,2013-01-13 23:03:00,
2013-01-13 18:08:00,29.2,26.1,29.88,North,358,1.0,6.0,88,0.00,,---,0.01,VWS V14.01,2013-01-13 23:08:00,
2013-01-13 18:10:00,29.3,26.2,29.88,North,359,3.0,6.0,88,0.00,,---,0.01,VWS V14.01,2013-01-13 23:10:00,
2013-01-13 18:13:00,29.2,26.1,29.89,North,359,3.0,5.0,88,0.00,,---,0.01,VWS V14.01,2013-01-13 23:13:00,
2013-01-13 18:18:00,29.3,26.2,29.89,NNW,347,0.0,5.0,88,0.00,,---,0.01,VWS V14.01,2013-01-13 23:18:00,
2013-01-13 18:20:00,29.2,26.1,29.89,North,359,1.0,5.0,88,0.00,,---,0.01,VWS V14.01,2013-01-13 23:20:00,
2013-01-13 18:23:00,29.2,26.1,29.90,North,0,1.0,4.0,88,0.00,,---,0.01,VWS V14.01,2013-01-13 23:23:00,
2013-01-13 18:28:00,29.3,26.2,29.89,North,0,1.0,4.0,88,0.00,,---,0.01,VWS V14.01,2013-01-13 23:28:00,
2013-01-13 18:30:00,29.3,26.2,29.89,North,0,2.0,4.0,88,0.00,,---,0.01,VWS V14.01,2013-01-13 23:30:00,
2013-01-13 18:33:00,29.1,26.0,29.88,North,0,1.0,4.0,88,0.00,,---,0.01,VWS V14.01,2013-01-13 23:33:00,
2013-01-13 18:38:00,29.1,26.0,29.89,North,0,1.0,4.0,88,0.00,,---,0.01,VWS V14.01,2013-01-13 23:38:00,
2013-01-13 18:40:00,29.1,26.0,29.89,North,0,1.0,4.0,88,0.00,,---,0.01,VWS V14.01,2013-01-13 23:40:00,
2013-01-13 18:43:00,29.1,26.0,29.89,North,0,2.0,3.0,88,0.00,,---,0.01,VWS V14.01,2013-01-13 23:43:00,
2013-01-13 18:48:00,29.1,26.0,29.89,North,0,0.0,3.0,88,0.00,,---,0.01,VWS V14.01,2013-01-13 23:48:00,
2013-01-13 18:50:00,29.1,26.0,29.89,North,0,0.0,3.0,88,0.00,,---,0.01,VWS V14.01,2013-01-13 23:50:00,
2013-01-13 18:53:00,29.1,26.0,29.89,North,0,2.0,3.0,88,0.00,,---,0.01,VWS V14.01,2013-01-13 23:53:00,
2013-01-13 18:58:00,29.1,26.0,29.89,North,0,2.0,3.0,88,0.00,,---,0.01,VWS V14.01,2013-01-13 23:58:00,
2013-01-13 19:00:00,29.1,26.0,29.89,North,0,2.0,3.0,88,0.00,,---,0.01,VWS V14.01,2013-01-14 00:00:00,
2013-01-13 19:03:00,28.9,25.8,29.90,North,0,1.0,3.0,88,0.00,,---,0.01,VWS V14.01,2013-01-14 00:03:00,
2013-01-13 19:08:00,28.9,26.1,29.89,North,0,0.0,3.0,89,0.00,,---,0.01,VWS V14.01,2013-01-14 00:08:00,
2013-01-13 19:10:00,28.9,26.1,29.89,North,0,0.0,3.0,89,0.00,,---,0.01,VWS V14.01,2013-01-14 00:10:00,
2013-01-13 19:13:00,28.9,26.1,29.90,North,0,0.0,1.0,89,0.00,,---,0.01,VWS V14.01,2013-01-14 00:13:00,
2013-01-13 19:18:00,28.9,26.1,29.90,North,0,1.0,3.0,89,0.00,,---,0.01,VWS V14.01,2013-01-14 00:18:00,
2013-01-13 19:20:00,28.9,26.1,29.90,North,0,0.0,3.0,89,0.00,,---,0.01,VWS V14.01,2013-01-14 00:20:00,
2013-01-13 19:23:00,28.9,26.1,29.90,North,0,0.0,2.0,89,0.00,,---,0.01,VWS V14.01,2013-01-14 00:23:00,
2013-01-13 19:28:00,29.0,26.2,29.91,West,275,0.0,2.0,89,0.00,,---,0.01,VWS V14.01,2013-01-14 00:28:00,
2013-01-13 19:30:00,29.0,26.2,29.90,West,275,1.0,2.0,89,0.00,,---,0.01,VWS V14.01,2013-01-14 00:30:00,
2013-01-13 19:33:00,28.9,26.1,29.91,West,275,0.0,2.0,89,0.00,,---,0.01,VWS V14.01,2013-01-14 00:33:00,
2013-01-13 19:38:00,28.9,26.1,29.91,West,275,0.0,2.0,89,0.00,,---,0.01,VWS V14.01,2013-01-14 00:38:00,
2013-01-13 19:40:00,28.9,26.1,29.92,West,275,0.0,2.0,89,0.00,,---,0.01,VWS V14.01,2013-01-14 00:40:00,
2013-01-13 19:43:00,29.0,26.4,29.91,West,275,0.0,3.0,90,0.00,,---,0.01,VWS V14.01,2013-01-14 00:43:00,
2013-01-13 19:48:00,28.9,26.3,29.92,West,275,0.0,3.0,90,0.00,,---,0.01,VWS V14.01,2013-01-14 00:48:00,
2013-01-13 19:50:00,29.0,26.4,29.92,West,275,0.0,3.0,90,0.00,,---,0.01,VWS V14.01,2013-01-14 00:50:00,
2013-01-13 19:53:00,28.9,26.3,29.91,West,275,0.0,2.0,90,0.00,,---,0.01,VWS V14.01,2013-01-14 00:53:00,
2013-01-13 19:58:00,28.9,26.3,29.91,West,275,0.0,3.0,90,0.00,,---,0.01,VWS V14.01,2013-01-14 00:58:00,
2013-01-13 20:00:00,29.0,26.4,29.91,West,276,1.0,3.0,90,0.00,,---,0.01,VWS V14.01,2013-01-14 01:00:00,
2013-01-13 20:03:00,29.1,26.5,29.90,SW,232,5.0,8.0,90,0.00,,---,0.01,VWS V14.01,2013-01-14 01:03:00,
2013-01-13 20:08:00,29.3,26.5,29.91,SSW,203,5.0,10.0,89,0.00,,---,0.01,VWS V14.01,2013-01-14 01:08:00,
2013-01-13 20:10:00,29.2,26.4,29.91,WSW,246,3.0,10.0,89,0.00,,---,0.01,VWS V14.01,2013-01-14 01:10:00,
2013-01-13 20:13:00,29.2,26.4,29.91,WSW,252,2.0,7.0,89,0.00,,---,0.01,VWS V14.01,2013-01-14 01:13:00,
2013-01-13 20:18:00,29.3,26.2,29.91,SW,230,5.0,219.0,88,0.00,,---,0.01,VWS V14.01,2013-01-14 01:18:00,
2013-01-13 20:20:00,29.3,26.2,29.91,West,262,6.0,219.0,88,0.00,,---,0.01,VWS V14.01,2013-01-14 01:20:00,
2013-01-13 20:23:00,29.3,26.5,29.91,West,272,0.0,7.0,89,0.00,,---,0.01,VWS V14.01,2013-01-14 01:23:00,
2013-01-13 20:28:00,29.2,26.1,29.91,SW,218,1.0,8.0,88,0.00,,---,0.01,VWS V14.01,2013-01-14 01:28:00,
2013-01-13 20:30:00,29.3,26.2,29.91,WSW,241,7.0,10.0,88,0.00,,---,0.01,VWS V14.01,2013-01-14 01:30:00,
2013-01-13 20:33:00,29.3,25.9,29.91,SW,234,8.0,10.0,87,0.00,,---,0.01,VWS V14.01,2013-01-14 01:33:00,
2013-01-13 20:38:00,29.1,25.7,29.92,West,278,5.0,10.0,87,0.00,,---,0.01,VWS V14.01,2013-01-14 01:38:00,
2013-01-13 20:40:00,29.1,25.7,29.92,West,276,1.0,10.0,87,0.00,,---,0.01,VWS V14.01,2013-01-14 01:40:00,
2013-01-13 20:43:00,29.1,25.4,29.92,WSW,255,5.0,9.0,86,0.00,,---,0.01,VWS V14.01,2013-01-14 01:43:00,
2013-01-13 20:48:00,29.0,25.4,29.91,WSW,246,9.0,12.0,86,0.00,,---,0.02,VWS V14.01,2013-01-14 01:48:00,
2013-01-13 20:50:00,29.0,25.3,29.92,WSW,258,2.0,12.0,86,0.00,,---,0.01,VWS V14.01,2013-01-14 01:50:00,
2013-01-13 20:53:00,28.9,25.0,29.91,West,275,3.0,9.0,85,0.00,,---,0.01,VWS V14.01,2013-01-14 01:53:00,
2013-01-13 20:58:00,28.6,24.7,29.91,West,263,0.0,9.0,85,0.00,,---,0.01,VWS V14.01,2013-01-14 01:58:00,
2013-01-13 21:00:00,28.7,24.5,29.91,West,265,10.0,10.0,84,0.00,,---,0.01,VWS V14.01,2013-01-14 02:00:00,
2013-01-13 21:04:00,28.7,24.5,29.91,WSW,244,3.0,10.0,84,0.00,,---,0.01,VWS V14.01,2013-01-14 02:04:00,
2013-01-13 21:08:00,28.5,24.3,29.91,WSW,258,5.0,10.0,84,0.00,,---,0.01,VWS V14.01,2013-01-14 02:08:00,
2013-01-13 21:10:00,28.5,24.3,29.91,WSW,255,3.0,10.0,84,0.00,,---,0.01,VWS V14.01,2013-01-14 02:10:00,
2013-01-13 21:14:00,28.5,24.3,29.91,SSW,203,2.0,4.0,84,0.00,,---,0.01,VWS V14.01,2013-01-14 02:14:00,
2013-01-13 21:19:00,28.5,24.6,29.92,NW,312,2.0,6.0,85,0.00,,---,0.01,VWS V14.01,2013-01-14 02:19:00,
2013-01-13 21:20:00,28.5,24.3,29.91,WSW,245,6.0,6.0,84,0.00,,---,0.01,VWS V14.01,2013-01-14 02:20:00,
2013-01-13 21:24:00,28.5,24.3,29.91,WSW,240,3.0,12.0,84,0.00,,---,0.01,VWS V14.01,2013-01-14 02:24:00,
2013-01-13 21:29:00,28.4,24.2,29.91,West,279,4.0,12.0,84,0.00,,---,0.01,VWS V14.01,2013-01-14 02:29:00,
2013-01-13 21:30:00,28.4,24.2,29.92,WSW,253,6.0,12.0,84,0.00,,---,0.01,VWS V14.01,2013-01-14 02:30:00,
2013-01-13 21:34:00,28.4,24.2,29.91,SSW,200,0.0,8.0,84,0.00,,---,0.01,VWS V14.01,2013-01-14 02:34:00,
2013-01-13 21:39:00,28.4,24.2,29.92,West,267,4.0,8.0,84,0.00,,---,0.01,VWS V14.01,2013-01-14 02:39:00,
2013-01-13 21:40:00,28.4,24.2,29.92,SSW,195,3.0,8.0,84,0.00,,---,0.01,VWS V14.01,2013-01-14 02:40:00,
2013-01-13 21:44:00,28.4,24.2,29.92,West,266,4.0,7.0,84,0.00,,---,0.01,VWS V14.01,2013-01-14 02:44:00,
2013-01-13 21:49:00,28.2,24.0,29.92,WSW,257,4.0,10.0,84,0.00,,---,0.01,VWS V14.01,2013-01-14 02:49:00,
2013-01-13 21:50:00,28.2,23.7,29.92,WSW,252,0.0,10.0,83,0.00,,---,0.01,VWS V14.01,2013-01-14 02:50:00,
2013-01-13 21:54:00,28.2,24.0,29.93,WSW,257,5.0,9.0,84,0.00,,---,0.01,VWS V14.01,2013-01-14 02:54:00,
2013-01-13 21:59:00,28.2,23.7,29.93,SW,233,0.0,13.0,83,0.00,,---,0.01,VWS V14.01,2013-01-14 02:59:00,
2013-01-13 22:00:00,28.2,24.0,29.93,West,268,6.0,13.0,84,0.00,,---,0.01,VWS V14.01,2013-01-14 03:00:00,
2013-01-13 22:04:00,28.1,23.6,29.93,WSW,256,3.0,8.0,83,0.00,,---,0.01,VWS V14.01,2013-01-14 03:04:00,
2013-01-13 22:09:00,28.1,23.6,29.93,WSW,249,6.0,9.0,83,0.00,,---,0.01,VWS V14.01,2013-01-14 03:09:00,
2013-01-13 22:10:00,28.1,23.6,29.93,WSW,253,0.0,9.0,83,0.00,,---,0.01,VWS V14.01,2013-01-14 03:10:00,
2013-01-13 22:14:00,28.1,23.6,29.93,SW,236,3.0,7.0,83,0.00,,---,0.01,VWS V14.01,2013-01-14 03:14:00,
2013-01-13 22:19:00,27.9,23.4,29.93,WNW,298,7.0,11.0,83,0.00,,---,0.01,VWS V14.01,2013-01-14 03:19:00,
2013-01-13 22:20:00,27.9,23.4,29.93,WSW,257,3.0,11.0,83,0.00,,---,0.01,VWS V14.01,2013-01-14 03:20:00,
2013-01-13 22:24:00,27.9,23.1,29.93,WNW,293,7.0,8.0,82,0.00,,---,0.01,VWS V14.01,2013-01-14 03:24:00,
2013-01-13 22:29:00,27.9,23.4,29.93,SW,236,11.0,13.0,83,0.00,,---,0.01,VWS V14.01,2013-01-14 03:29:00,
2013-01-13 22:30:00,27.9,23.4,29.93,West,264,7.0,13.0,83,0.00,,---,0.01,VWS V14.01,2013-01-14 03:30:00,
2013-01-13 22:34:00,27.8,23.0,29.93,West,274,9.0,12.0,82,0.00,,---,0.01,VWS V14.01,2013-01-14 03:34:00,
2013-01-13 22:39:00,27.8,23.3,29.94,SSW,196,4.0,12.0,83,0.00,,---,0.01,VWS V14.01,2013-01-14 03:39:00,
2013-01-13 22:40:00,27.8,23.3,29.94,WSW,244,5.0,12.0,83,0.00,,---,0.01,VWS V14.01,2013-01-14 03:40:00,
2013-01-13 22:44:00,27.8,23.0,29.94,NW,307,3.0,14.0,82,0.00,,---,0.01,VWS V14.01,2013-01-14 03:44:00,
2013-01-13 22:49:00,27.6,22.8,29.94,West,275,3.0,14.0,82,0.00,,---,0.01,VWS V14.01,2013-01-14 03:49:00,
2013-01-13 22:50:00,27.6,22.8,29.94,WNW,283,7.0,14.0,82,0.00,,---,0.01,VWS V14.01,2013-01-14 03:50:00,
2013-01-13 22:54:00,27.5,22.5,29.95,WSW,255,8.0,16.0,81,0.00,,---,0.01,VWS V14.01,2013-01-14 03:54:00,
2013-01-13 22:59:00,27.5,22.1,29.95,SW,224,4.0,16.0,80,0.00,,---,0.01,VWS V14.01,2013-01-14 03:59:00,
2013-01-13 23:00:00,27.5,22.5,29.95,WNW,288,10.0,16.0,81,0.00,,---,0.01,VWS V14.01,2013-01-14 04:00:00,
2013-01-13 23:04:00,27.3,22.0,29.95,ESE,121,0.0,15.0,80,0.00,,---,0.01,VWS V14.01,2013-01-14 04:04:00,
2013-01-13 23:09:00,27.2,21.6,29.95,WSW,253,4.0,19.0,79,0.00,,---,0.01,VWS V14.01,2013-01-14 04:09:00,
2013-01-13 23:10:00,27.2,21.6,29.95,WSW,252,5.0,19.0,79,0.00,,---,0.01,VWS V14.01,2013-01-14 04:10:00,
2013-01-13 23:14:00,27.2,21.3,29.95,WSW,244,5.0,14.0,78,0.00,,---,0.01,VWS V14.01,2013-01-14 04:14:00,
2013-01-13 23:19:00,27.0,21.1,29.96,WNW,290,7.0,14.0,78,0.00,,---,0.01,VWS V14.01,2013-01-14 04:19:00,
2013-01-13 23:20:00,27.0,21.1,29.95,WSW,252,4.0,14.0,78,0.00,,---,0.01,VWS V14.01,2013-01-14 04:20:00,
2013-01-13 23:24:00,26.9,21.0,29.96,WSW,246,9.0,9.0,78,0.00,,---,0.01,VWS V14.01,2013-01-14 04:24:00,
2013-01-13 23:29:00,26.9,21.0,29.96,WSW,250,12.0,16.0,78,0.00,,---,0.01,VWS V14.01,2013-01-14 04:29:00,
2013-01-13 23:30:00,26.9,20.7,29.96,WNW,291,10.0,16.0,77,0.00,,---,0.01,VWS V14.01,2013-01-14 04:30:00,
2013-01-13 23:34:00,26.7,20.5,29.97,West,279,5.0,14.0,77,0.00,,---,0.01,VWS V14.01,2013-01-14 04:34:00,
2013-01-13 23:39:00,26.6,20.4,29.97,WSW,246,3.0,14.0,77,0.00,,---,0.01,VWS V14.01,2013-01-14 04:39:00,
2013-01-13 23:40:00,26.6,20.4,29.97,West,266,4.0,14.0,77,0.00,,---,0.01,VWS V14.01,2013-01-14 04:40:00,
2013-01-13 23:44:00,26.6,20.4,29.97,West,266,5.0,11.0,77,0.00,,---,0.01,VWS V14.01,2013-01-14 04:44:00,
2013-01-13 23:49:00,26.6,20.4,29.97,WSW,255,4.0,11.0,77,0.00,,---,0.01,VWS V14.01,2013-01-14 04:49:00,
2013-01-13 23:50:00,26.6,20.4,29.97,SW,218,9.0,11.0,77,0.00,,---,0.01,VWS V14.01,2013-01-14 04:50:00,
2013-01-13 23:54:00,26.4,20.2,29.97,West,278,11.0,14.0,77,0.00,,---,0.01,VWS V14.01,2013-01-14 04:54:00,
2013-01-13 23:59:00,26.3,19.8,29.97,West,269,7.0,14.0,76,0.00,,---,0.01,VWS V14.01,2013-01-14 04:59:00,